CW4829 Weather Reports


Display with metric or nautical units.
time (UTC)temp
F
wind
direction
speed
MPH
gust
MPH
rain 1hr
in
rain 24hr
in
rain mn
in
humidity
%
barometer
mb
20260502195029 46 286 3.0 8.0 0.00 0.00 0.00 54 1013.6
20260502194020 46 5 4.0 12.0 0.00 0.00 0.00 54 1013.7
20260502193024 47 350 8.0 13.0 0.00 0.00 0.00 55 1013.7
20260502192527 46 36 2.0 12.0 0.00 0.00 0.00 55 1013.7
20260502191524 46 360 3.0 8.0 0.00 0.00 0.00 55 1013.7
20260502190541 46 360 4.0 10.0 0.00 0.00 0.00 55 1013.8
20260502190113 46 335 3.0 10.0 0.00 0.00 0.00 55 1013.8
20260502185023 47 333 5.0 11.0 0.00 0.00 0.00 56 1013.8
20260502183516 47 232 5.0 11.0 0.00 0.00 0.00 55 1013.8
20260502183042 47 347 3.0 12.0 0.00 0.00 0.00 56 1013.8
20260502182601 47 321 5.0 12.0 0.00 0.00 0.00 56 1013.9
20260502182104 46 319 7.0 11.0 0.00 0.00 0.00 56 1013.9
20260502181514 46 296 5.0 10.0 0.00 0.00 0.00 57 1013.9
20260502181050 46 306 4.0 12.0 0.00 0.00 0.00 58 1013.8
20260502164032 44 296 3.0 10.0 0.00 0.01 0.00 64 1014.3
20260502163038 45 306 5.0 11.0 0.00 0.01 0.00 65 1014.3
20260502162547 45 280 5.0 10.0 0.00 0.01 0.00 64 1014.4
20260502161527 45 297 4.0 9.0 0.00 0.01 0.00 65 1014.4
20260502161056 45 315 4.0 7.0 0.00 0.01 0.00 67 1014.4
20260502151531 45 288 5.0 10.0 0.00 0.01 0.00 71 1014.4
20260502151033 44 269 3.0 9.0 0.00 0.01 0.00 73 1014.4
20260502130529 39 12 3.0 8.0 0.00 0.02 0.00 81 1013.9
20260502123551 37 269 3.0 8.0 0.00 0.02 0.00 83 1013.9
20260502123114 37 349 4.0 8.0 0.00 0.02 0.00 83 1013.9
20260502122028 36 333 4.0 8.0 0.00 0.02 0.00 84 1013.7
20260502121602 36 293 3.0 7.0 0.00 0.02 0.00 84 1013.7
20260502120532 35 333 3.0 6.0 0.00 0.02 0.00 85 1013.6
20260502115042 34 336 2.0 7.0 0.00 0.02 0.00 86 1013.4
20260502114546 34 323 3.0 7.0 0.00 0.02 0.00 87 1013.4
20260502114104 34 300 4.0 6.0 0.00 0.02 0.00 88 1013.4
20260502113523 34 314 2.0 5.0 0.00 0.02 0.00 88 1013.4
20260502113046 33 315 3.0 5.0 0.00 0.02 0.00 89 1013.4
20260502112036 33 306 2.0 3.0 0.00 0.02 0.00 89 1013.3
20260502111548 32 200 1.0 2.0 0.00 0.02 0.00 89 1013.3
20260502111054 32 200 0.0 0.0 0.00 0.02 0.00 89 1013.3
20260502110043 32 200 0.0 0.0 0.00 0.02 0.00 89 1013.3
20260502105022 32 200 0.0 0.0 0.00 0.02 0.00 89 1013.3
20260502104539 32 200 0.0 0.0 0.00 0.02 0.00 89 1013.3
20260502103538 32 200 0.0 0.0 0.00 0.02 0.00 88 1013.3
20260502103025 32 200 0.0 0.0 0.00 0.02 0.00 88 1013.3
20260502102605 32 200 0.0 0.0 0.00 0.02 0.00 88 1013.3
20260502102054 32 200 0.0 0.0 0.00 0.02 0.00 89 1013.3
20260502101550 32 200 0.0 0.0 0.00 0.02 0.00 89 1013.3
20260502101046 32 200 0.0 0.0 0.00 0.02 0.00 89 1013.3
20260502091521 33 200 0.0 0.0 0.00 0.02 0.00 89 1013.3
20260502091056 33 200 0.0 0.0 0.00 0.02 0.00 89 1013.2
20260502090554 33 200 0.0 0.0 0.00 0.02 0.00 89 1013.2
20260502071022 34 200 0.0 0.0 0.00 0.02 0.00 88 1013.2
20260502070549 35 200 0.0 0.0 0.00 0.02 0.00 88 1013.2
20260502070047 35 200 0.0 0.0 0.00 0.02 0.00 88 1013.2
20260502065028 35 200 0.0 0.0 0.00 0.02 0.00 88 1013.2
20260502064600 35 200 0.0 0.0 0.00 0.02 0.00 88 1013.2
20260502064104 35 200 0.0 0.0 0.00 0.02 0.00 88 1013.3
20260502063609 36 200 0.0 0.0 0.00 0.02 0.00 88 1013.3
20260502062538 36 200 0.0 0.0 0.00 0.02 0.00 88 1013.3
20260502062056 36 200 0.0 0.0 0.00 0.02 0.00 88 1013.3
20260502061025 36 200 0.0 0.0 0.00 0.02 0.00 88 1013.3
20260502060604 36 200 0.0 0.0 0.00 0.02 0.00 88 1013.3
20260502060054 37 200 0.0 0.0 0.00 0.02 0.00 88 1013.3
20260502055525 37 200 0.0 0.0 0.00 0.02 0.00 88 1013.3
20260502055049 37 200 0.0 0.0 0.00 0.02 0.00 88 1013.3
20260502054532 37 200 0.0 0.0 0.00 0.02 0.00 88 1013.3
20260502054038 37 200 0.0 0.0 0.00 0.02 0.00 88 1013.5
20260502053523 37 200 0.0 0.0 0.00 0.02 0.00 88 1013.5
20260502053031 38 200 0.0 0.0 0.00 0.02 0.00 88 1013.5
20260502052546 38 200 0.0 0.0 0.00 0.02 0.00 88 1013.4
20260502052044 38 200 0.0 0.0 0.00 0.02 0.00 88 1013.4
20260502051536 37 200 0.0 3.0 0.00 0.02 0.00 88 1013.4
20260502051039 37 200 1.0 3.0 0.00 0.02 0.00 88 1013.5
20260502050529 37 74 0.0 0.0 0.00 0.02 0.00 87 1013.5
20260502050047 38 74 0.0 0.0 0.00 0.02 0.00 87 1013.5
20260502045542 38 74 0.0 0.0 0.00 0.02 0.00 87 1013.6
20260502045036 38 74 0.0 0.0 0.00 0.02 0.00 87 1013.6
20260502044546 38 74 0.0 0.0 0.00 0.02 0.00 87 1013.6
20260502044032 38 74 0.0 0.0 0.00 0.02 0.00 87 1013.5
20260502043546 38 74 0.0 0.0 0.00 0.02 0.00 87 1013.5
20260502043105 38 74 0.0 0.0 0.00 0.02 0.00 86 1013.5
20260502042557 38 74 0.0 0.0 0.00 0.02 0.00 86 1013.6
20260502042027 38 74 0.0 0.0 0.00 0.02 0.00 86 1013.6
20260502041542 38 74 0.0 0.0 0.00 0.02 0.00 86 1013.6
20260502041044 38 74 0.0 0.0 0.00 0.02 0.00 86 1013.4
20260502040529 38 74 0.0 0.0 0.00 0.02 0.00 86 1013.4
20260502040052 38 74 0.0 0.0 0.00 0.02 0.00 86 1013.4
20260502035535 38 74 0.0 0.0 0.00 0.02 0.02 86 1013.3
20260502035049 38 74 0.0 0.0 0.00 0.02 0.02 85 1013.3
20260502034546 38 74 0.0 0.0 0.00 0.02 0.02 86 1013.3
20260502034040 38 74 0.0 0.0 0.00 0.02 0.02 86 1013.4
20260502033544 38 74 0.0 0.0 0.00 0.02 0.02 86 1013.4
20260502033054 38 74 0.0 0.0 0.00 0.02 0.02 85 1013.4
20260502032610 39 74 0.0 0.0 0.00 0.02 0.02 85 1013.4
20260502032045 39 74 0.0 0.0 0.00 0.02 0.02 85 1013.4
20260502031020 39 74 0.0 0.0 0.00 0.02 0.02 84 1013.4
20260502030529 39 74 0.0 0.0 0.00 0.02 0.02 84 1013.4
20260502030035 39 74 0.0 0.0 0.00 0.02 0.02 84 1013.4
20260502025538 39 74 0.0 0.0 0.00 0.02 0.02 84 1013.6
20260502025059 39 74 0.0 0.0 0.00 0.02 0.02 84 1013.6
20260502024606 39 74 0.0 0.0 0.00 0.02 0.02 84 1013.6
20260502024051 39 74 0.0 0.0 0.00 0.02 0.02 83 1013.3
20260502023558 40 74 0.0 0.0 0.00 0.02 0.02 83 1013.3
20260502022525 40 74 0.0 0.0 0.00 0.02 0.02 83 1013.3
20260502021541 41 74 0.0 0.0 0.00 0.02 0.02 83 1013.3
20260502021051 41 74 0.0 0.0 0.00 0.02 0.02 82 1013.2
20260502020553 41 74 0.0 0.0 0.00 0.02 0.02 82 1013.2
20260502015522 41 74 0.0 0.0 0.00 0.02 0.02 81 1012.9
20260502015041 41 74 0.0 0.0 0.00 0.02 0.02 80 1012.9
20260502014555 41 74 0.0 0.0 0.00 0.02 0.02 80 1012.9
20260502013519 42 74 0.0 0.0 0.00 0.02 0.02 80 1012.8
20260502013029 42 74 0.0 0.0 0.00 0.02 0.02 80 1012.8
20260502012540 42 74 0.0 0.0 0.00 0.02 0.02 79 1012.4
20260502012055 43 74 0.0 1.0 0.00 0.02 0.02 79 1012.4
20260502011019 43 74 0.0 2.0 0.00 0.02 0.02 78 1012.2
20260502010524 43 75 0.0 2.0 0.00 0.02 0.02 78 1012.2
20260502010056 43 75 0.0 1.0 0.00 0.02 0.02 78 1012.2
20260502005553 43 22 0.0 1.0 0.00 0.02 0.02 78 1012.2
20260502005106 44 22 0.0 3.0 0.00 0.02 0.02 77 1012.2
20260502004526 44 22 1.0 2.0 0.00 0.02 0.02 77 1012.2
20260502004044 44 22 1.0 3.0 0.00 0.02 0.02 76 1012.2
20260502003550 45 22 1.0 5.0 0.00 0.02 0.02 76 1012.2
20260502003115 45 30 1.0 5.0 0.00 0.02 0.02 76 1012.2
20260502002536 46 42 2.0 5.0 0.00 0.02 0.02 76 1012.2
20260502001527 47 360 2.0 5.0 0.00 0.02 0.02 75 1012.2
20260502001041 47 42 2.0 5.0 0.00 0.02 0.02 75 1011.7
20260502000554 47 17 2.0 4.0 0.00 0.02 0.02 74 1011.7
20260502000058 47 325 2.0 3.0 0.00 0.02 0.02 74 1011.7
20260501235035 47 325 0.0 1.0 0.00 0.02 0.02 74 1011.3
20260501234551 48 325 0.0 4.0 0.00 0.02 0.02 74 1011.3
20260501234056 48 325 1.0 4.0 0.00 0.02 0.02 73 1011.2
20260501233604 48 351 1.0 5.0 0.00 0.02 0.02 73 1011.2
20260501233043 48 291 2.0 4.0 0.00 0.02 0.02 74 1011.2
20260501232550 48 10 2.0 6.0 0.00 0.02 0.02 74 1011.1
20260501231533 48 31 1.0 5.0 0.00 0.02 0.02 74 1011.1
20260501231106 48 349 1.0 3.0 0.00 0.02 0.02 75 1011.1
20260501230602 48 349 1.0 3.0 0.00 0.02 0.02 75 1011.1
20260501230111 48 349 1.0 6.0 0.00 0.02 0.02 74 1011.1
20260501225554 48 348 3.0 6.0 0.00 0.02 0.02 75 1011.1
20260501225117 48 329 2.0 6.0 0.00 0.02 0.02 75 1011.1
20260501224036 48 355 3.0 7.0 0.00 0.02 0.02 75 1011.1
20260501223022 48 341 1.0 5.0 0.00 0.02 0.02 76 1011.1
20260501222540 48 341 1.0 5.0 0.00 0.02 0.02 76 1011.3
20260501222054 47 296 3.0 7.0 0.00 0.02 0.02 76 1011.3
20260501221557 48 321 2.0 7.0 0.00 0.02 0.02 76 1011.3
20260501220531 47 329 2.0 6.0 0.00 0.02 0.02 77 1011.2
20260501220047 48 17 2.0 6.0 0.00 0.02 0.02 76 1011.2
20260501215023 48 32 3.0 8.0 0.00 0.02 0.02 76 1011.3
20260501214547 49 19 4.0 8.0 0.00 0.02 0.02 77 1011.3
20260501213523 47 58 2.0 5.0 0.00 0.02 0.02 80 1011.1
20260501213035 47 324 3.0 6.0 0.00 0.02 0.02 80 1011.1
20260501212600 47 360 2.0 8.0 0.00 0.02 0.02 79 1011.1
20260501211520 47 21 2.0 9.0 0.00 0.02 0.02 80 1011.1
20260501211036 47 320 5.0 9.0 0.00 0.02 0.02 80 1010.9
20260501210550 46 333 5.0 11.0 0.00 0.02 0.02 79 1010.9
20260501205526 46 319 4.0 10.0 0.00 0.02 0.02 80 1010.8
20260501205056 46 244 5.0 11.0 0.00 0.02 0.02 80 1010.8
20260501204054 46 284 4.0 13.0 0.00 0.02 0.02 80 1010.7
20260501203025 46 294 6.0 13.0 0.00 0.02 0.02 80 1010.7
20260501202029 45 355 4.0 10.0 0.00 0.02 0.02 81 1010.7
20260501201552 45 317 6.0 10.0 0.00 0.02 0.02 80 1010.7